Location: Ashtead
(51.3000°N, 0.3000°W)
Time: 15:52:57
(UTC+00:00)

CZ-2C R/B - Pass Details

Date: 05 May 2025
Orbit: 781 x 868 km, 98.4° (Epoch: 12 May)

Event Time Altitude Azimuth Distance (km) Brightness Sun altitude
Exits shadow 00:08:36 22° 117° (ESE) 1,723 4.1 -22.4°
Maximum altitude 00:11:26 38° 64° (ENE) 1,215 3.7 -22.4°
Drops below altitude 10° 00:16:14 10° 358° (N) 2,371 6.2 -22.3°
Sets 00:18:40 0° 351° (N) 3,296 7.1 -22.3°
